Vorticity
5 4 5 5 5 6 8 7 7 8 6 9 11 4 18 29 16 20 18 16 13 27 24 29 31 33 26 11 4 2 17 19 34 28 14 9 25 3 19 -4 -9 3 16 35 47 12 31 17 24 2 1 -12 -1 2
7 8 8 7 7 7 8 7 8 8 8 9 5 7 10 6 21 12 -7 29 11 -4 -18 -9 -0 -13 12 17 11 11 7 -22 -27 -25 -23 18 -2 -4 9 -16 26 8 -26 -22 -22 -11 -20 -3 -11 0 -8 -13 4 11
11 12 12 12 11 10 10 10 9 8 10 7 10 7 4 -1 4 10 11 -2 4 3 9 31 32 11 -7 -9 -4 24 18 25 19 6 20 23 26 12 -13 -0 29 8 6 -4 23 11 14 16 -0 6 5 13 11 2
17 17 15 16 14 15 14 12 11 11 9 7 7 4 11 8 6 8 5 16 9 -0 11 -21 7 11 15 18 7 2 19 18 6 14 8 12 2 22 13 5 7 4 13 11 8 7 12 6 7 13 13 9 -1 22
21 21 22 22 21 20 20 19 15 12 12 11 9 12 9 6 9 10 8 8 17 6 -18 5 9 -1 -13 7 9 10 16 21 -16 13 15 12 19 23 7 12 3 6 8 13 -6 6 5 2 12 19 7 3 24 17
13 13 12 11 12 17 20 21 25 25 21 16 11 8 5 6 8 12 22 7 12 29 1 30 59 7 12 7 8 19 10 17 17 7 12 35 21 11 8 11 14 19 22 23 20 19 14 17 19 -0 17 26 14 11
18 18 18 18 18 17 21 21 19 19 22 24 23 17 14 10 10 11 -4 4 -3 -3 34 24 47 21 9 3 12 17 32 27 27 17 15 11 6 -5 -6 -3 7 3 -0 1 11 17 13 2 21 26 16 7 7 8
13 16 13 24 17 16 9 13 17 24 23 17 33 37 28 11 8 8 9 16 15 14 -5 -10 16 68 29 10 12 3 5 14 11 14 18 18 26 25 34 33 33 32 28 26 26 24 23 18 14 11 9 8 8 8
21 14 11 12 11 17 8 -0 5 8 12 20 11 9 18 29 26 15 6 16 21 26 10 -22 -33 10 26 11 17 28 29 29 15 16 22 30 22 5 6 18 18 21 10 12 15 12 12 5 7 11 11 11 10 10
10 18 18 12 13 7 6 33 40 5 7 12 10 7 9 -3 30 40 43 27 19 16 2 9 -25 -25 -15 -6 17 18 9 13 12 21 33 40 36 24 11 7 10 16 21 23 2 -0 7 12 12 11 11 12 13 12
12 10 17 17 16 10 13 9 24 28 7 15 8 11 12 17 9 14 27 37 49 54 48 27 25 6 10 8 15 9 17 11 9 22 3 12 23 21 19 17 14 -5 -6 2 10 12 12 12 12 13 13 12 11 11
25 15 14 17 18 16 0 23 14 25 8 19 29 24 16 12 32 16 21 24 -6 3 -17 -2 15 26 32 27 24 28 11 16 6 14 6 13 22 16 8 -3 -10 5 14 15 15 14 14 14 12 10 9 8 7 8
19 21 20 19 11 14 12 14 41 13 6 22 25 19 29 12 17 -4 17 -5 32 -0 -1 24 26 10 35 23 13 16 9 11 14 11 12 16 11 -6 -3 6 13 13 13 13 13 14 15 15 14 15 16 18 19 19
6 10 15 15 8 13 26 24 20 11 21 25 10 32 6 7 15 5 10 18 29 9 13 28 27 6 15 23 6 9 12 10 11 7 16 1 -4 7 11 11 12 11 12 13 14 13 14 15 15 17 18 18 18 17
25 25 26 28 19 12 29 14 17 13 3 3 3 18 15 8 16 12 -3 0 6 16 14 28 26 7 24 -5 18 9 12 12 12 18 -7 6 11 10 11 11 11 12 13 13 14 15 15 16 16 15 17 18 18 16
31 12 18 11 14 18 19 21 19 14 -2 11 14 19 19 5 13 9 23 28 33 30 32 11 17 16 6 11 13 13 5 16 13 2 10 9 10 11 11 11 11 12 13 14 14 15 15 15 15 16 16 17 16 16
21 16 16 17 16 42 5 20 20 15 14 10 2 8 22 -1 -7 3 14 31 38 24 -0 6 15 15 22 14 9 11 12 2 9 10 10 11 11 11 11 11 12 13 13 14 14 14 15 16 17 17 16 16 13 15
20 21 20 11 7 6 9 35 29 22 18 6 -1 1 9 9 10 19 26 27 28 15 -1 17 21 11 12 11 12 9 10 10 10 11 11 11 11 11 11 11 12 12 12 12 13 15 16 16 16 17 17 15 16 17
16 19 3 15 12 11 33 24 -0 21 29 19 25 14 19 36 48 37 28 14 8 19 8 7 11 14 15 12 10 10 10 11 11 11 11 11 10 11 11 10 11 11 11 11 12 14 16 16 15 16 17 16 15 15
29 18 18 13 18 9 18 8 15 24 27 28 30 27 27 27 16 8 11 16 6 3 14 17 16 11 10 10 10 10 11 11 11 11 11 10 10 10 10 10 10 11 11 11 10 12 14 16 16 15 17 19 15 14
21 18 3 11 12 27 19 19 28 -2 2 16 17 17 12 10 16 12 4 11 17 13 9 10 9 9 11 11 11 11 11 10 11 11 10 10 9 10 10 10 10 10 10 11 10 10 12 14 15 16 16 17 19 13
22 13 9 10 3 -4 7 29 24 21 22 22 13 11 12 6 6 8 12 12 8 9 9 10 10 11 11 11 11 11 11 11 10 10 10 10 10 10 10 9 10 9 10 10 11 11 10 11 13 15 17 14 16 17
4 16 19 7 11 9 11 36 23 27 19 11 13 4 3 8 15 15 7 8 9 10 11 11 11 11 11 12 11 11 11 10 10 10 10 10 10 10 10 9 9 10 10 9 10 10 11 11 11 11 14 16 15 13
30 11 2 28 38 37 19 15 10 12 15 8 1 6 8 9 6 7 9 11 11 11 12 12 12 12 12 11 11 11 11 11 10 10 10 10 10 9 10 9 10 9 10 9 9 9 10 11 12 11 11 12 14 17
20 21 25 15 14 8 7 9 8 3 5 9 9 15 14 13 -4 4 11 10 12 11 11 12 12 11 11 11 11 11 11 10 11 10 10 10 10 10 10 10 10 10 10 9 9 9 9 10 11 12 11 12 12 11
2 15 24 17 12 5 6 11 15 14 7 11 14 13 10 8 12 -12 9 10 11 11 11 11 11 11 11 11 11 12 10 10 10 11 12 10 11 11 10 11 10 9 11 10 9 9 9 9 9 10 10 11 12 13
17 17 15 14 15 17 13 13 12 9 11 20 20 13 12 12 12 -7 11 12 12 12 12 12 12 13 13 12 11 9 10 13 15 15 15 15 14 14 14 14 13 12 12 12 11 10 10 9 9 9 9 10 11 12
12 10 12 11 9 7 7 6 8 4 7 7 19 23 0 15 7 12 11 12 13 13 13 11 9 10 10 11 11 11 11 12 13 13 15 14 14 14 14 15 13 14 14 13 13 12 11 11 11 10 9 9 9 9
10 9 5 5 3 -0 7 7 8 11 11 13 12 11 8 8 8 8 12 14 11 11 18 18 21 20 11 7 15 12 12 13 15 16 15 14 12 13 12 14 13 14 15 14 13 13 12 12 11 11 10 9 8 8
4 4 6 8 9 9 9 8 2 -3 1 13 27 20 10 3 11 12 12 13 13 14 18 18 16 19 21 25 9 10 14 18 17 15 16 15 14 13 14 15 14 14 14 14 13 13 13 12 12 13 15 11 11 11
4 3 2 0 -1 -6 -4 2 7 6 10 3 -16 -3 32 18 -4 11 11 15 16 17 19 19 17 15 19 20 18 15 14 19 20 13 14 15 14 14 15 15 15 15 14 15 14 14 12 12 12 12 12 12 11 12
18 24 26 25 23 24 17 6 1 0 -0 23 14 -18 5 19 10 12 12 16 16 17 18 17 17 17 18 19 18 19 20 14 14 14 15 15 16 16 16 15 15 15 15 15 15 16 13 12 13 12 11 11 11 11
9 7 7 5 11 22 28 13 9 13 5 -11 14 9 -19 19 13 12 13 16 16 16 15 17 18 18 17 18 18 17 17 16 16 15 12 14 16 16 15 15 16 16 15 15 14 14 13 11 11 11 11 12 12 12
Height
2992 2991 2989 2988 2987 2986 2985 2984 2982 2980 2978 2977 2976 2974 2972 2971 2970 2967 2964 2961 2959 2952 2947 2948 2948 2947 2944 2943 2941 2940 2940 2935 2935 2933 2931 2928 2921 2918 2915 2912 2912 2913 2914 2910 2913 2910 2900 2890 2890 2893 2889 2887 2886 2885
2973 2972 2971 2970 2969 2969 2968 2968 2968 2967 2966 2965 2963 2961 2960 2959 2957 2956 2953 2951 2949 2940 2937 2936 2935 2936 2933 2933 2933 2929 2929 2927 2926 2921 2919 2916 2911 2906 2904 2900 2899 2900 2896 2896 2895 2886 2884 2883 2881 2881 2881 2880 2878 2877
2952 2951 2951 2950 2949 2949 2949 2950 2949 2950 2950 2949 2949 2949 2948 2946 2945 2944 2941 2942 2939 2932 2924 2923 2922 2922 2922 2921 2922 2920 2916 2914 2910 2910 2908 2904 2900 2895 2892 2886 2887 2884 2884 2882 2882 2876 2877 2875 2875 2874 2873 2871 2869 2867
2930 2929 2928 2928 2928 2928 2929 2930 2930 2930 2932 2933 2933 2934 2933 2932 2930 2929 2926 2929 2928 2922 2914 2908 2909 2909 2908 2907 2905 2905 2904 2902 2901 2900 2896 2892 2888 2884 2878 2878 2875 2874 2875 2871 2868 2867 2867 2865 2866 2865 2864 2862 2861 2858
2911 2910 2909 2908 2908 2908 2908 2909 2910 2911 2912 2914 2915 2917 2917 2917 2916 2913 2910 2913 2913 2915 2903 2897 2897 2898 2896 2893 2892 2891 2890 2891 2890 2888 2884 2879 2876 2874 2869 2867 2862 2863 2863 2862 2859 2861 2859 2859 2857 2856 2854 2853 2851 2850
2895 2893 2893 2892 2892 2891 2891 2891 2891 2891 2893 2895 2897 2899 2901 2901 2901 2898 2896 2904 2902 2900 2897 2888 2881 2884 2884 2881 2879 2877 2876 2876 2876 2875 2871 2867 2864 2866 2862 2856 2852 2852 2852 2852 2852 2851 2850 2849 2849 2847 2846 2844 2844 2843
2879 2878 2877 2877 2877 2876 2877 2876 2877 2876 2877 2878 2879 2881 2883 2885 2885 2884 2884 2890 2890 2890 2885 2878 2870 2872 2873 2869 2866 2864 2863 2864 2864 2863 2858 2856 2855 2857 2849 2845 2844 2843 2843 2842 2842 2841 2840 2840 2839 2838 2837 2836 2836 2835
2866 2865 2864 2863 2862 2862 2863 2864 2864 2864 2864 2864 2864 2865 2867 2870 2869 2870 2873 2876 2878 2878 2875 2870 2859 2860 2861 2857 2855 2853 2853 2854 2852 2851 2847 2845 2846 2843 2838 2833 2834 2834 2834 2834 2833 2833 2832 2831 2831 2831 2830 2828 2828 2826
2854 2853 2852 2851 2850 2850 2850 2851 2851 2853 2853 2853 2853 2853 2849 2852 2853 2856 2861 2863 2864 2867 2861 2851 2848 2849 2847 2847 2845 2845 2844 2842 2842 2839 2837 2839 2833 2832 2828 2828 2828 2828 2829 2828 2828 2827 2826 2825 2825 2823 2822 2821 2820 2818
2843 2841 2840 2840 2839 2839 2838 2838 2840 2841 2842 2844 2843 2843 2843 2843 2843 2845 2843 2845 2848 2845 2842 2838 2842 2842 2843 2839 2838 2841 2837 2836 2833 2831 2830 2826 2822 2823 2822 2823 2823 2823 2823 2823 2823 2822 2820 2818 2816 2815 2814 2813 2812 2810
2830 2830 2829 2828 2829 2829 2829 2830 2829 2830 2833 2833 2833 2833 2834 2837 2837 2837 2834 2831 2828 2828 2828 2829 2830 2829 2829 2833 2832 2832 2828 2827 2826 2825 2826 2819 2815 2816 2819 2820 2820 2820 2820 2819 2816 2814 2812 2810 2808 2807 2806 2804 2803 2802
2819 2818 2818 2818 2819 2820 2820 2820 2821 2821 2823 2825 2826 2825 2828 2828 2827 2826 2824 2824 2822 2822 2821 2822 2821 2819 2819 2821 2823 2822 2823 2822 2820 2820 2819 2814 2813 2814 2817 2818 2818 2817 2814 2812 2809 2807 2804 2802 2801 2799 2797 2795 2794 2793
2810 2809 2809 2810 2810 2811 2811 2811 2811 2814 2815 2817 2819 2820 2819 2819 2816 2814 2814 2814 2813 2813 2813 2812 2812 2813 2812 2815 2816 2816 2816 2816 2816 2814 2813 2812 2812 2814 2815 2814 2813 2811 2808 2805 2803 2800 2797 2795 2793 2791 2789 2787 2785 2783
2803 2802 2802 2802 2803 2803 2803 2803 2806 2808 2810 2811 2812 2812 2813 2811 2810 2807 2809 2808 2807 2807 2808 2807 2807 2809 2808 2810 2811 2811 2812 2813 2811 2811 2809 2811 2811 2811 2811 2809 2808 2805 2802 2799 2796 2793 2790 2788 2786 2784 2781 2778 2776 2775
2797 2796 2796 2796 2797 2797 2798 2799 2800 2803 2805 2805 2807 2804 2804 2805 2804 2805 2807 2806 2805 2805 2805 2805 2805 2807 2806 2807 2807 2809 2809 2808 2808 2808 2809 2809 2808 2807 2806 2805 2803 2800 2797 2794 2790 2787 2784 2782 2779 2776 2774 2772 2770 2769
2794 2793 2791 2794 2794 2794 2794 2795 2797 2799 2799 2799 2800 2801 2800 2802 2802 2803 2802 2802 2802 2800 2801 2803 2803 2804 2804 2804 2805 2805 2806 2805 2807 2807 2806 2805 2805 2804 2803 2801 2799 2796 2793 2789 2785 2782 2779 2776 2773 2771 2768 2767 2766 2764
2793 2792 2792 2792 2792 2791 2792 2792 2793 2794 2795 2796 2797 2798 2800 2800 2799 2800 2801 2801 2801 2802 2802 2803 2803 2802 2803 2803 2804 2804 2804 2805 2805 2804 2804 2804 2803 2801 2799 2797 2795 2792 2789 2786 2782 2778 2775 2772 2769 2767 2765 2763 2761 2761
2792 2792 2792 2792 2791 2791 2789 2789 2790 2791 2792 2793 2796 2797 2797 2797 2797 2797 2797 2798 2800 2802 2804 2804 2803 2803 2804 2804 2804 2805 2804 2803 2803 2803 2802 2801 2800 2798 2797 2794 2792 2789 2786 2782 2779 2775 2772 2769 2766 2764 2761 2760 2759 2758
2793 2792 2792 2792 2792 2791 2789 2790 2791 2790 2791 2792 2793 2794 2795 2795 2794 2796 2798 2800 2803 2804 2804 2805 2806 2805 2805 2805 2805 2804 2804 2803 2803 2801 2800 2799 2798 2796 2794 2792 2789 2786 2783 2780 2777 2773 2770 2767 2764 2761 2758 2757 2756 2755
2793 2794 2793 2794 2794 2793 2793 2793 2793 2793 2795 2795 2796 2796 2797 2798 2800 2801 2803 2805 2806 2807 2807 2806 2807 2807 2806 2806 2805 2804 2803 2802 2802 2800 2799 2797 2796 2794 2792 2789 2787 2785 2782 2779 2775 2771 2768 2765 2762 2759 2757 2755 2753 2752
2795 2796 2797 2798 2797 2796 2796 2797 2797 2799 2801 2802 2803 2804 2804 2805 2807 2808 2810 2809 2809 2809 2809 2809 2808 2807 2807 2806 2805 2804 2803 2802 2800 2799 2797 2796 2794 2792 2790 2787 2785 2783 2780 2777 2774 2771 2768 2764 2761 2758 2756 2753 2752 2750
2800 2801 2801 2802 2801 2800 2803 2804 2805 2806 2808 2810 2811 2811 2812 2813 2813 2813 2813 2813 2812 2812 2812 2811 2810 2809 2807 2806 2805 2804 2802 2801 2799 2798 2796 2794 2792 2790 2788 2786 2784 2781 2779 2776 2773 2770 2767 2764 2760 2757 2755 2752 2750 2748
2807 2807 2806 2805 2807 2810 2815 2812 2812 2813 2816 2818 2818 2818 2819 2818 2818 2818 2817 2817 2816 2815 2814 2812 2811 2809 2808 2806 2805 2803 2802 2800 2798 2796 2794 2792 2790 2788 2786 2784 2782 2780 2777 2775 2772 2769 2766 2763 2760 2757 2754 2752 2749 2747
2813 2810 2811 2814 2817 2820 2822 2822 2822 2822 2824 2824 2824 2824 2824 2824 2824 2822 2822 2820 2819 2817 2815 2813 2811 2809 2807 2805 2804 2802 2800 2798 2796 2794 2792 2790 2788 2786 2784 2782 2780 2778 2775 2773 2770 2768 2765 2762 2759 2756 2754 2751 2749 2746
2819 2822 2826 2827 2828 2830 2830 2831 2832 2832 2832 2832 2831 2830 2830 2828 2827 2826 2825 2823 2821 2819 2816 2814 2811 2809 2807 2805 2803 2800 2798 2796 2793 2791 2789 2787 2785 2782 2780 2778 2776 2774 2772 2770 2768 2765 2763 2761 2758 2755 2753 2751 2749 2746
2827 2836 2839 2839 2841 2840 2840 2840 2840 2839 2838 2837 2837 2836 2834 2832 2831 2831 2829 2826 2823 2820 2817 2814 2811 2809 2806 2803 2801 2798 2795 2792 2790 2787 2785 2782 2780 2778 2776 2774 2772 2770 2768 2766 2764 2762 2760 2758 2756 2754 2752 2749 2747 2746
2846 2850 2851 2851 2851 2850 2850 2849 2848 2847 2846 2845 2843 2841 2839 2838 2837 2836 2832 2828 2825 2821 2817 2814 2810 2807 2804 2801 2797 2794 2791 2788 2785 2783 2780 2777 2775 2773 2771 2769 2767 2765 2763 2761 2760 2758 2757 2755 2754 2752 2750 2748 2746 2745
2861 2864 2863 2864 2862 2861 2860 2858 2856 2856 2854 2853 2850 2848 2846 2845 2843 2839 2833 2829 2824 2820 2816 2811 2808 2804 2800 2796 2793 2789 2786 2783 2780 2778 2775 2772 2769 2767 2765 2763 2761 2759 2758 2756 2755 2754 2753 2751 2750 2749 2747 2746 2744 2743
2877 2877 2877 2876 2872 2869 2869 2867 2865 2864 2862 2859 2856 2853 2851 2848 2844 2839 2834 2829 2824 2818 2813 2808 2803 2799 2795 2791 2788 2784 2781 2778 2775 2772 2769 2767 2764 2762 2759 2757 2755 2754 2752 2751 2750 2749 2747 2746 2745 2745 2744 2743 2741 2740
2890 2889 2886 2884 2880 2879 2878 2876 2874 2871 2868 2865 2862 2858 2855 2850 2845 2840 2834 2829 2822 2816 2810 2805 2800 2795 2790 2786 2783 2779 2776 2772 2769 2767 2764 2761 2758 2756 2754 2751 2750 2748 2746 2745 2744 2743 2742 2741 2740 2739 2739 2738 2738 2737
2900 2898 2895 2893 2890 2888 2885 2882 2879 2875 2871 2868 2864 2861 2856 2851 2846 2840 2834 2827 2820 2814 2808 2802 2796 2791 2786 2782 2778 2774 2771 2768 2764 2761 2758 2755 2752 2750 2748 2746 2744 2742 2740 2739 2738 2737 2736 2735 2734 2734 2733 2733 2732 2732
2909 2906 2903 2899 2897 2894 2890 2887 2884 2880 2876 2871 2866 2861 2857 2850 2845 2839 2832 2826 2819 2812 2805 2799 2794 2788 2783 2778 2774 2770 2766 2763 2759 2756 2753 2750 2747 2744 2742 2739 2737 2735 2734 2732 2731 2730 2730 2729 2728 2727 2727 2726 2726 2726
2916 2913 2910 2907 2903 2899 2894 2889 2886 2882 2878 2874 2869 2863 2858 2850 2844 2838 2831 2823 2816 2809 2803 2797 2791 2786 2780 2775 2771 2766 2762 2758 2755 2751 2748 2744 2741 2738 2736 2733 2731 2730 2728 2726 2725 2724 2723 2722 2721 2720 2720 2719 2719 2719